Total_Precipitation_Accumulation
0.52 0.49 0.46 0.49 0.54 0.58 0.63 0.71 0.77 0.93 1.04 1.09 1.22 1.42 1.58 1.74 1.89 1.97 1.83 1.68 1.66 1.82 1.96 1.89 1.97 1.99 1.85 1.86 1.91 1.95 1.91 1.73 1.60 1.65 1.54 1.29 1.10 1.17 1.12 1.07 1.10 1.13 1.21
0.36 0.34 0.31 0.34 0.36 0.37 0.42 0.52 0.62 0.68 0.82 0.99 1.24 1.43 1.73 1.79 1.87 2.00 2.04 1.95 1.89 2.05 2.09 2.17 2.25 2.28 2.28 2.21 2.11 2.22 2.37 2.11 1.88 1.98 2.26 1.89 1.55 1.19 0.96 1.03 1.05 1.12 1.34
0.22 0.18 0.19 0.24 0.29 0.29 0.32 0.42 0.54 0.68 0.91 1.13 1.46 1.74 2.02 2.10 2.15 2.10 2.14 2.17 2.21 2.27 2.31 2.37 2.42 2.43 2.28 2.27 2.38 2.51 2.85 2.67 2.30 2.09 2.36 2.20 1.90 1.62 1.18 1.04 1.05 1.11 1.27
0.20 0.17 0.18 0.19 0.23 0.27 0.34 0.47 0.67 0.89 1.15 1.48 1.86 2.13 2.38 2.48 2.31 2.27 2.27 2.24 2.19 2.23 2.35 2.36 2.34 2.30 2.24 2.31 2.37 2.42 2.84 3.06 2.77 2.42 2.01 1.79 1.76 1.86 1.60 1.18 1.09 1.14 1.13
0.25 0.23 0.24 0.26 0.33 0.42 0.51 0.70 0.97 1.27 1.54 1.78 1.98 2.23 2.36 2.36 2.30 2.25 2.25 2.15 2.10 2.08 2.12 2.12 2.22 2.24 2.27 2.34 2.50 2.64 2.91 2.94 2.93 2.75 2.52 2.28 1.96 1.61 1.70 1.66 1.36 1.27 1.14
0.30 0.30 0.33 0.42 0.51 0.60 0.77 0.96 1.14 1.45 1.64 1.77 1.87 2.03 2.18 2.22 2.21 2.21 2.23 2.21 2.16 2.06 1.98 1.92 2.01 2.15 2.29 2.34 2.44 2.60 2.86 2.97 3.06 2.98 2.69 2.58 2.41 2.13 2.01 1.75 1.61 1.57 1.31
0.41 0.42 0.53 0.67 0.76 0.81 0.94 1.11 1.19 1.39 1.50 1.55 1.65 1.79 1.85 1.88 1.90 1.90 1.90 1.82 1.77 1.77 1.83 1.88 1.97 2.10 2.19 2.26 2.38 2.52 2.59 2.71 2.96 2.97 2.80 2.58 2.38 2.37 2.25 2.14 1.82 1.62 1.39
0.60 0.70 0.84 0.93 1.01 1.04 1.02 1.07 1.22 1.25 1.25 1.30 1.30 1.41 1.51 1.57 1.60 1.56 1.56 1.61 1.64 1.66 1.62 1.66 1.74 1.96 2.15 2.22 2.32 2.33 2.32 2.38 2.57 2.58 2.66 2.62 2.36 2.32 2.22 2.22 2.32 2.03 1.77
0.85 1.09 1.28 1.36 1.44 1.39 1.22 1.10 1.10 1.08 1.07 1.17 1.23 1.26 1.32 1.36 1.37 1.37 1.30 1.41 1.44 1.44 1.40 1.44 1.48 1.60 1.82 2.06 2.21 2.18 2.10 2.07 2.23 2.30 2.40 2.54 2.57 2.48 2.37 2.34 2.43 2.42 2.16
1.29 1.59 1.85 1.99 1.95 1.74 1.50 1.28 1.10 1.00 0.97 1.03 1.12 1.19 1.21 1.22 1.18 1.19 1.12 1.17 1.27 1.26 1.22 1.23 1.32 1.47 1.60 1.78 2.00 2.09 2.03 2.03 2.11 2.21 2.33 2.48 2.61 2.65 2.43 2.39 2.39 2.28 2.25
1.73 1.93 2.11 2.21 1.96 1.78 1.52 1.26 1.09 1.07 1.08 1.11 1.14 1.17 1.12 1.09 1.06 1.02 0.97 1.02 1.10 1.10 1.10 1.24 1.30 1.37 1.47 1.67 1.93 2.11 2.12 2.04 2.05 2.03 2.10 2.28 2.38 2.61 2.58 2.49 2.39 2.27 2.16
1.49 1.61 1.71 1.72 1.72 1.67 1.48 1.28 1.17 1.16 1.20 1.21 1.25 1.20 1.12 1.06 1.04 0.99 0.90 0.88 0.84 0.84 0.96 1.10 1.13 1.17 1.22 1.43 1.72 1.92 1.98 1.96 1.86 1.81 1.91 2.12 2.29 2.51 2.64 2.60 2.45 2.37 2.25
1.27 1.27 1.32 1.42 1.50 1.49 1.39 1.35 1.30 1.32 1.32 1.28 1.17 1.11 1.05 0.96 0.92 0.82 0.75 0.80 0.79 0.85 0.97 1.05 1.10 1.14 1.19 1.23 1.36 1.55 1.70 1.69 1.63 1.63 1.67 1.70 1.88 2.16 2.36 2.38 2.41 2.47 2.45
1.01 1.00 1.09 1.19 1.28 1.28 1.28 1.24 1.21 1.26 1.36 1.42 1.32 1.20 1.09 0.99 0.95 0.84 0.75 0.72 0.75 0.83 0.91 0.96 1.04 1.12 1.16 1.18 1.20 1.24 1.31 1.35 1.43 1.49 1.50 1.53 1.58 1.78 1.96 2.06 2.25 2.51 2.56
0.69 0.74 0.80 0.82 0.80 0.78 0.85 0.89 0.97 1.10 1.26 1.42 1.40 1.27 1.10 0.97 0.91 0.86 0.78 0.76 0.75 0.76 0.83 0.88 0.88 0.94 1.04 1.14 1.18 1.07 1.05 1.15 1.26 1.28 1.22 1.24 1.36 1.51 1.63 1.66 2.01 2.38 2.59
0.45 0.44 0.46 0.47 0.45 0.43 0.43 0.46 0.56 0.72 0.97 1.24 1.24 1.04 0.87 0.74 0.68 0.70 0.73 0.73 0.71 0.76 0.79 0.77 0.78 0.85 0.87 1.06 1.06 0.91 0.91 0.98 1.09 1.19 1.16 1.05 1.05 1.12 1.25 1.32 1.46 1.72 1.98
0.35 0.33 0.33 0.32 0.32 0.32 0.32 0.34 0.43 0.55 0.72 0.86 0.85 0.76 0.66 0.62 0.67 0.70 0.65 0.67 0.69 0.70 0.71 0.70 0.69 0.72 0.84 0.89 0.76 0.78 0.81 0.89 0.98 1.06 1.14 1.05 0.93 1.04 1.12 1.24 1.31 1.28 1.32
0.26 0.25 0.25 0.25 0.29 0.30 0.34 0.39 0.45 0.51 0.55 0.58 0.60 0.56 0.54 0.56 0.60 0.62 0.61 0.67 0.73 0.70 0.70 0.73 0.71 0.70 0.78 0.79 0.66 0.73 0.75 0.78 0.86 1.00 1.11 1.15 1.08 1.10 1.22 1.22 1.24 1.16 1.11
0.18 0.17 0.17 0.17 0.20 0.19 0.21 0.23 0.26 0.28 0.30 0.29 0.29 0.32 0.33 0.36 0.38 0.39 0.46 0.58 0.65 0.68 0.71 0.76 0.77 0.70 0.69 0.76 0.68 0.71 0.74 0.76 0.81 0.85 0.95 1.04 1.01 1.20 1.31 1.27 1.40 1.39 1.25
0.18 0.17 0.14 0.15 0.16 0.16 0.16 0.16 0.17 0.18 0.18 0.18 0.18 0.21 0.23 0.23 0.24 0.28 0.33 0.39 0.40 0.47 0.58 0.59 0.61 0.65 0.65 0.86 0.79 0.79 0.75 0.79 0.89 0.92 0.91 1.08 1.11 1.26 1.24 1.15 1.36 1.40 1.32
0.17 0.18 0.17 0.16 0.17 0.19 0.17 0.16 0.17 0.18 0.20 0.23 0.25 0.24 0.23 0.24 0.25 0.28 0.30 0.32 0.34 0.39 0.44 0.49 0.53 0.62 0.73 0.92 0.93 0.95 0.88 0.90 1.03 1.02 0.94 0.89 1.06 0.97 1.05 1.06 1.06 1.30 1.35
0.15 0.16 0.17 0.19 0.20 0.19 0.17 0.17 0.17 0.18 0.20 0.22 0.24 0.26 0.26 0.26 0.27 0.29 0.32 0.35 0.37 0.37 0.40 0.43 0.49 0.54 0.63 0.74 0.81 0.85 0.87 0.94 1.00 1.05 0.95 0.94 1.04 0.87 0.84 0.84 0.95 1.18 1.30
0.14 0.14 0.16 0.15 0.17 0.17 0.16 0.16 0.17 0.19 0.20 0.22 0.24 0.26 0.27 0.27 0.25 0.26 0.31 0.35 0.37 0.39 0.43 0.48 0.54 0.58 0.62 0.66 0.68 0.68 0.73 0.78 0.82 0.85 0.94 0.95 0.92 0.84 0.76 0.77 0.88 0.97 1.07
0.14 0.13 0.14 0.16 0.17 0.18 0.18 0.19 0.18 0.18 0.19 0.23 0.26 0.28 0.27 0.27 0.27 0.28 0.32 0.35 0.38 0.42 0.47 0.52 0.56 0.60 0.63 0.65 0.64 0.70 0.76 0.73 0.71 0.71 0.72 0.75 0.77 0.77 0.73 0.73 0.80 0.88 1.00
0.16 0.17 0.19 0.17 0.18 0.20 0.22 0.25 0.25 0.22 0.20 0.22 0.24 0.24 0.25 0.27 0.28 0.30 0.31 0.33 0.35 0.44 0.53 0.58 0.61 0.60 0.58 0.58 0.63 0.72 0.79 0.87 0.94 0.99 0.87 0.84 0.84 0.81 0.75 0.72 0.74 0.81 0.91
0.20 0.21 0.22 0.21 0.21 0.22 0.24 0.26 0.27 0.28 0.28 0.27 0.25 0.24 0.23 0.26 0.29 0.29 0.30 0.32 0.34 0.40 0.44 0.47 0.50 0.51 0.54 0.58 0.59 0.64 0.73 0.84 0.99 1.12 1.07 1.09 1.09 1.04 0.95 0.85 0.77 0.74 0.78